TimeCDT,TemperatureF,Dew PointF,Humidity,Sea Level PressureIn,VisibilityMPH,Wind Direction,Wind SpeedMPH,Gust SpeedMPH,PrecipitationIn,Events,Conditions,WindDirDegrees,DateUTC
12:47 AM,73.4,73.4,100,29.79,7.0,NNW,8.1,-,N/A,,Partly Cloudy,330,2012-10-26 05:47:00
1:41 AM,73.4,73.4,100,29.81,7.0,NNW,9.2,-,N/A,,Partly Cloudy,340,2012-10-26 06:41:00
2:46 AM,73.4,73.4,100,29.79,7.0,North,10.4,-,N/A,,Partly Cloudy,350,2012-10-26 07:46:00
3:45 AM,73.4,71.6,94,29.81,7.0,North,6.9,-,N/A,,Clear,350,2012-10-26 08:45:00
4:50 AM,73.4,71.6,94,29.78,7.0,NNW,8.1,-,N/A,,Clear,330,2012-10-26 09:50:00
5:51 AM,73.4,71.6,94,29.80,7.0,NNW,9.2,-,N/A,,Clear,340,2012-10-26 10:51:00
6:47 AM,73.4,71.6,94,29.78,7.0,NNW,9.2,-,N/A,,Clear,330,2012-10-26 11:47:00
7:41 AM,73.4,71.6,94,29.82,8.0,NNW,9.2,-,N/A,,Clear,330,2012-10-26 12:41:00
8:44 AM,75.2,71.6,89,29.84,8.0,NNW,9.2,-,N/A,,Clear,330,2012-10-26 13:44:00
9:41 AM,77.0,73.4,89,29.88,8.0,NW,8.1,-,N/A,,Clear,320,2012-10-26 14:41:00
10:42 AM,78.8,71.6,78,29.85,10.0,NNW,9.2,-,N/A,,Clear,330,2012-10-26 15:42:00
11:45 AM,80.6,71.6,74,29.85,10.0,NNW,9.2,-,N/A,,Partly Cloudy,330,2012-10-26 16:45:00
12:43 PM,82.4,69.8,66,29.80,10.0,WNW,6.9,-,N/A,,Partly Cloudy,300,2012-10-26 17:43:00
1:48 PM,82.4,69.8,66,29.80,10.0,WNW,6.9,-,N/A,,Partly Cloudy,300,2012-10-26 18:48:00
2:43 PM,84.2,68.0,58,29.78,10.0,WNW,4.6,-,N/A,,Scattered Clouds,300,2012-10-26 19:43:00
3:42 PM,80.6,71.6,74,29.81,10.0,NE,6.9,-,N/A,,Scattered Clouds,50,2012-10-26 20:42:00
4:51 PM,80.6,71.6,74,29.78,10.0,ENE,8.1,-,N/A,,Scattered Clouds,60,2012-10-26 21:51:00
5:49 PM,78.8,69.8,74,29.79,8.0,North,9.2,-,N/A,,Scattered Clouds,350,2012-10-26 22:49:00
6:41 PM,77.0,68.0,74,29.78,7.0,North,13.8,-,N/A,,Partly Cloudy,350,2012-10-26 23:41:00
7:42 PM,77.0,68.0,74,29.83,7.0,North,9.2,-,N/A,,Partly Cloudy,360,2012-10-27 00:42:00
8:48 PM,75.2,69.8,83,29.85,7.0,NNW,11.5,-,N/A,,Partly Cloudy,340,2012-10-27 01:48:00
9:52 PM,75.2,69.8,83,29.89,7.0,NNW,8.1,-,N/A,,Partly Cloudy,330,2012-10-27 02:52:00
10:54 PM,73.4,69.8,88,29.87,7.0,NNW,9.2,-,N/A,,Partly Cloudy,330,2012-10-27 03:54:00